Location: Arclight Observatory
(36.5667°N, 87.3333°W)
Time: 09:05:08
(UTC-06:00)

ISS - Visible Passes

Search period start: 11 February 2016 00:00
Search period end: 21 February 2016 00:00
Orbit: 399 x 407 km, 51.6° (Epoch: 11 February)

Date Brightness Start Highest point End Pass type
(mag) Time Alt. Az. Time Alt. Az. Time Alt. Az.
14 Feb -0.8 19:00:22 10° N 19:01:04 12° N 19:01:04 12° N visible
15 Feb -0.2 19:43:07 10° NW 19:43:20 11° NW 19:43:20 11° NW visible
16 Feb -1.9 18:50:38 10° NNW 18:53:02 25° NNE 18:53:02 25° NNE visible
17 Feb -1.4 17:58:20 10° NNW 18:00:26 16° NNE 18:02:32 10° ENE visible
17 Feb -1.2 19:33:57 10° NW 19:35:30 25° WNW 19:35:30 25° WNW visible
18 Feb -3.3 18:41:11 10° NW 18:44:24 57° NE 18:45:28 35° E visible
19 Feb -1.3 19:25:13 10° WNW 19:27:51 23° SW 19:28:17 22° SW visible
20 Feb -2.5 18:32:02 10° WNW 18:35:11 50° SW 18:38:19 10° SSE visible
